Regional Weather Roundup
Issued by NWS Grand Forks, ND

Home | Current Version | Previous Version | Text Only | Print | Product List | Glossary On
Versions: 1 2 3 4 5 6 7 8 9 10 11 12 13 14 15 16 17 18 19 20 21 22 23 24 25 26 27 28 29 30 31 32 33 34 35 36 37 38 39 40 41 42 43 44 45 46 47 48 49 50
000
ASUS43 KFGF 272031
RWRFGF
PRAIRIE TO PINES  WEATHER ROUNDUP
NATIONAL WEATHER SERVICE EASTERN NORTH DAKOTA/GRAND FORKS ND
200 PM CST TUE JAN 27 2015

 **SATELLITE DATA USED TO AUGMENT SKY COVER AT AUTOMATED STATIONS**
 *****  WEATHER ACROSS EASTERN NORTH DAKOTA  *****

CITY           SKY/WX    TMP DP  RH WIND       PRES   REMARKS
GRAND FORKS    CLOUDY    31  29  92 S17       29.97F WCI  19
GRAND FRKS AFB CLOUDY    31  28  89 S15       29.96F WCI  20
DEVILS LAKE    PTSUNNY   36  32  87 S13       29.86F
FARGO          CLOUDY    31  29  92 S17       30.00F WCI  19
WAHPETON ARPT  CLOUDY    30  30 100 SE18      30.03F WCI  18
$$

 ***** WEATHER ACROSS CENTRAL AND WESTERN NORTH DAKOTA  *****

CITY           SKY/WX    TMP DP  RH WIND       PRES   REMARKS
BISMARCK       MOSUNNY   49  32  52 SW6       29.84F
MINOT          MOSUNNY   47  35  63 S7        29.78F
JAMESTOWN      MOSUNNY   40  34  79 S20       29.88F
MINOT AFB      MOSUNNY   46  43  89 VRB2      29.79F
GARRISON         N/A     47  37  68 SW6       29.81S
WILLISTON      PTSUNNY   51  35  54 S3        29.80F
DICKINSON      MOSUNNY   61  37  41 W10       29.82F
HETTINGER      MOSUNNY   61  34  36 W10       29.86F
$$

 *****  OTHER AIRPORT OBSERVATIONS IN OUR AREA  *****

CITY           SKY/WX    TMP DP  RH WIND       PRES   REMARKS
WALHALLA         N/A     36  36 100 S13       29.91S
GRAFTON AIRPOR NOT AVBL
VALLEY CITY AR CLOUDY    32  32 100 SE15      29.93F WCI  22
CANDO          FAIR      36  32  87 S14       29.85F
CAVALIER APRT  CLOUDY    32  30  93 S16       29.93F WCI  21
GWINNER        CLOUDY    34  34 100 SE14      29.97F WCI  24
ROLLA          FAIR      36  34  93 S13       29.83S
 ***** THE ABOVE OBSERVATIONS ARE NON NWS ARE NOT QUALITY
       CONTROLLED AND MAY MIS-REPORT RAIN FOR SNOW...
$$

  *****  WEATHER ACROSS NORTHERN MINNESOTA  *****

CITY           SKY/WX    TMP DP  RH WIND       PRES   REMARKS
FLAG ISLAND    CLOUDY    27  25  93 SE13      30.01S WCI  16
WARROAD        CLOUDY    30  27  86 S7        30.01S WCI  23
ROSEAU         CLOUDY    28  25  86 SE5       29.99F WCI  23
HALLOCK        CLOUDY    30  28  93 S13       29.96F WCI  20
THF RVR FALLS  PTSUNNY   30  30 100 S12       29.98F WCI  21
BAUDETTE       CLOUDY    30  24  78 S8        30.01F WCI  22
WASKISH        CLOUDY    34  27  75 SE8       30.02F
CROOKSTON      CLOUDY    32  30  93 S18       30.00F WCI  20
STEPHEN NDAWN    N/A     30  30 100 S14         N/A  WCI  20
GREENBUSH NDAW   N/A     30  28  93 S12         N/A  WCI  21
$$
  *****  WEATHER ACROSS CENTRAL AND WEST MINNESOTA  *****

CITY           SKY/WX    TMP DP  RH WIND       PRES   REMARKS
FOSSTON        PTSUNNY   37  30  75 SE9       30.00F
BEMIDJI        PTSUNNY   33  27  78 S8        30.02S
PARK RAPIDS    CLOUDY    32  27  81 S12       30.04F WCI  23
ELBOW LAKE     CLOUDY    31  29  95 SE15      30.04F WCI  20
WADENA         CLOUDY    30  27  86 SE10      30.05F WCI  21
DETROIT LAKES  PTSUNNY   32  32 100 S16       30.02F WCI  21
MOORHEAD       CLOUDY    32  32 100 S16G23    30.02F WCI  21
FERGUS FALLS   CLOUDY    30  28  93 SE15      30.07F WCI  19
MORRIS MN      CLOUDY    30  30 100 SE17      30.05F FOG     WCI  18
STAPLES        CLOUDY    32  27  80 SE12      30.07F WCI  23
$$
  *****  WEATHER ELSEWHERE ACROSS MINNESOTA  *****

CITY           SKY/WX    TMP DP  RH WIND       PRES   REMARKS
DULUTH         CLOUDY    28  21  75 S8        30.11F WCI  20
INTRNTL FALLS  PTSUNNY   30  23  75 S6        30.05F WCI  24
ELY            CLOUDY    27  21  80 SW6       30.10S WCI  20
CLOQUET        CLOUDY    28  21  74 S6        30.11F WCI  22
WHEATON        CLOUDY    28  28 100 SE12      30.06S FOG     WCI  18
BRAINERD       CLOUDY    32  26  78 SE8       30.10F WCI  25
HIBBING        CLOUDY    29  22  75 S7        30.09F WCI  22
ALEXANDRIA     CLOUDY    31  28  89 SE14      30.07F WCI  21
SAINT CLOUD    CLOUDY    33  26  75 S8        30.12F
MINNEAPOLIS    CLOUDY    33  24  69 S6        30.17S
$$

  *****  WEATHER ACROSS SOUTH DAKOTA  *****

CITY           SKY/WX    TMP DP  RH WIND       PRES   REMARKS
SIOUX FALLS    PTSUNNY   36  33  89 SE10      30.03F
BROOKINGS      NOT AVBL
WATERTOWN      MOSUNNY   34  31  88 SE14      29.99F WCI  25
HURON          SUNNY     45  37  73 SE16G22   29.94F
SISSETON         N/A     30  30 100 S18       30.01F WCI  18
ABERDEEN       SUNNY     43  36  76 S16       29.94F
MITCHELL       SUNNY     48  38  68 S13       29.97F
PIERRE         SUNNY     53  34  48 S8        29.88F
MOBRIDGE       SUNNY     49  36  61 SE7       29.84F
RAPID CITY     NOT AVBL
$$

  *****  SOME WEATHER IN NEARBY STATES *****

CITY           SKY/WX    TMP DP  RH WIND       PRES   REMARKS
GLASGOW MT     MOSUNNY   50  34  54 W3        29.83F
GREAT FALLS MT MOSUNNY   63  26  24 SW20      29.88F
CHEYENNE WY    SUNNY     64  19  17 W15       30.11F
SCOTTSBLUFF NE   N/A    N/A N/A N/A MISG      30.01F
OMAHA NE       MOSUNNY   50  33  52 S12       30.07F
DES MOINES IA  MOSUNNY   45  30  55 SE6       30.14F
DAVENPORT IA   CLOUDY    28  21  75 E7        30.20R WCI  21
CHICAGO IL     MOSUNNY   31  18  58 NE7       30.17R WCI  24
EAU CLAIRE WI  CLOUDY    31  19  61 CALM      30.18F
LA CROSSE WI   CLOUDY    31  21  66 W6        30.22R
$$

  *****  SOME NATIONAL WEATHER *****

CITY           SKY/WX    TMP DP  RH WIND       PRES   REMARKS
LA GUARDIA NY  CLOUDY    27  17  66 N13       29.65F WCI  16
RALEIGH NC     MOSUNNY   44  16  32 NW9       29.80S
ATLANTA GA     MOSUNNY   47  28  47 N15       29.96S
NEW ORLEANS LA MOSUNNY   70  41  34 NW9       30.08F
OKLAHOMA CITY  MOSUNNY   76  32  20 SW13      30.11F
ALBUQUERQUE NM PTSUNNY   55  28  35 CALM      30.31F
SALT LAKE CITY PTSUNNY   56  35  45 S21       30.16F
LOS ANGELES CA MOSUNNY   66  57  72 W12       30.16F
BOISE ID       CLOUDY    36  34  93 VRB3      30.10F FOG
SEATTLE WA     DRZL/FOG  50  48  93 SW7       30.09S VSB 1/2
$$

*** WEATHER ACROSS MANITOBA...SASKATCHEWAN AND ONTARIO ***
                ***ONTARIO***

CITY           SKY/WX    TMP DP  RH WIND       PRES   REMARKS
GERALDTON      FLURRIES  25  19  80 SW12      30.11F WCI  14
THUNDER BAY    CLOUDY    28  23  80 E5        30.16F WCI  23
SIOUX LOOKOUT  CLOUDY    21  19  93 SW10      30.04S WCI  10
TORONTO        PTSUNNY   19   0  42 N13       30.06R WCI   7
BIG TROUT LK   LGT SNOW  25  23  93 W8        29.87R WCI  16
PICKLE LAKE    CLOUDY    21  18  86 SW13G18   29.99S WCI   9
DRYDEN         CLOUDY    21  19  93 S13       30.03F WCI   9
KENORA         CLOUDY    25  23  93 S9        30.01S WCI  15
$$
                *** MANITOBA***

CITY           SKY/WX    TMP DP  RH WIND       PRES   REMARKS
BRANDON        CLOUDY    37  30  75 SE5       29.84S
DAUPHIN        SUNNY     34  30  86 S3        29.85F
ISLAND LAKE    FLURRIES  27  25  93 NW8       29.89R WCI  18
PILOT MOUND      N/A     34  30  86 S17         N/A  WCI  23
THE PAS        CLOUDY    25  25 100 N9        29.96R WCI  15
THOMPSON       FLURRIES  12   3  67 NW15      29.99R WCI  -4
WINNIPEG       FRZ RAIN  28  27  93 S18       29.94F WCI  16
LYNN LAKE      SUNNY      0  -8  71 NW13      30.02R WCI -18
CHURCHILL      MOSUNNY   -4 -11  71 NW28G39   29.91R BLWGSNOWWCI -30
GILLAM         FLURRIES  12   5  73 NW13      29.94R WCI  -3
$$
                ***SASKATCHEWAN***

CITY           SKY/WX    TMP DP  RH WIND       PRES   REMARKS
ESTEVAN        CLOUDY    45  37  76 SW6       29.77F
KINDERSLEY     CLOUDY    34  30  86 E7        29.78S
LLOYDMINSTER   CLOUDY    34  32  93 E12       29.82S
PRINCE ALBERT  CLOUDY    32  28  86 E12       29.90S WCI  23
REGINA         PTSUNNY   36  30  80 NE2       29.78F
YORKTON        SUNNY     34  30  86 N3        29.83S
N. BATTLEFORD  MOSUNNY   37  32  81 NE7       29.84F
LA RONGE       PTSUNNY   12   5  73 N8        30.04R WCI   1
SASKATOON      CLOUDY    37  30  75 E10       29.83F
SWIFT CURRENT  CLOUDY    41  36  81 SW5       29.76F
$$
NOTE: THESE ARE AUTOMATED STATIONS WITH LIMITED QUALITY CONTROL
      "FAIR" INDICATES FEW OR NO CLOUDS BELOW 12,000 FEET WITH NO
      SIGNIFICANT WEATHER AND/OR OBSTRUCTIONS TO VISIBILITY.
      SKY/WX - SKY CONDITION AND SIGNIFICANT WEATHER.
      TMP - AIR TEMPERATURE.    DP   - DEWPOINT TEMPERATURE.
      RH  - RELATIVE HUMIDITY.  PRES - PRESSURE.
      HX  - HEAT INDEX.         WCI  - WIND CHILL INDEX.
$


USA.gov is the U.S. government's official web portal to all federal, state and local government web resources and services.